Hourly Data Report for July 21, 2021

WINNIPEG THE FORKS
MANITOBA
Current Station Operator: ECCC - MSC

49°53'18.008" N
97°07'46.007" W
230.00 m
5023262
71579
XWN

Download Data

Hourly Data (July 2021)
Hourly Data Report for July 21, 2021
TIME
LST
Temp Definition
°C
Dew Point Definition
°C
Rel Hum Definition
%
Precip. Amount Definition
mm

Wind Dir Definition
10's deg

Wind Spd Definition
km/h
Visibility Definition
km
Stn Press Definition
kPa
Hmdx Definition


Wind Chill Definition


Weather Definition


00:00 19.0 17.2 89 0.1 0 1   99.05     LegendNANA
01:00 18.9 17.0 89 0.0 10 3   99.01     LegendNANA
02:00 19.0 17.3 90 0.1 9 3   99.00     LegendNANA
03:00 18.7 17.1 91 0.0 7 4   98.89     LegendNANA
04:00 19.0 17.3 90 0.0 0 1   98.90     LegendNANA
05:00 19.3 17.5 89 0.0 11 3   98.88     LegendNANA
06:00 19.6 17.5 88 0.0 9 2   98.86     LegendNANA
07:00 20.0 17.6 86 0.0 7 1   98.88 26   LegendNANA
08:00 21.2 18.0 82 0.0 10 2   98.80 27   LegendNANA
09:00 21.3 18.4 84 0.0 20 4   98.85 28   LegendNANA
10:00 20.8 18.9 89 1.7 9 2   98.80 27   LegendNANA
11:00 22.2 19.9 87 0.2 7 3   98.80 30   LegendNANA
12:00 22.7 19.8 84 0.0 9 7   98.80 30   LegendNANA
13:00 22.9 20.0 84 0.0 9 8   98.74 30   LegendNANA
14:00 23.9 19.7 77 0.0 10 7   98.70 31   LegendNANA
15:00 25.3 19.8 72 0.0 9 10   98.62 33   LegendNANA
16:00 25.4 19.1 68 0.0 10 9   98.55 32   LegendNANA
17:00 25.4 18.8 67 0.0 9 6   98.54 32   LegendNANA
18:00 24.0 19.2 74 0.0 9 6   98.58 31   LegendNANA
19:00 22.8 18.3 76 0.0 9 8   98.55 29   LegendNANA
20:00 22.1 18.2 79 0.0 9 7   98.54 28   LegendNANA
21:00 21.5 17.5 78 0.0 9 8   98.56 27   LegendNANA
22:00 21.1 16.9 77 0.0 9 7   98.57 26   LegendNANA
23:00 20.3 17.4 83 0.1 9 5   98.54 26   LegendNANA

Notes on Data Quality.

Legend

  • E = Estimated
  • M = Missing
  • NA = Not Available*
  • [empty] = Indicates an unobserved value
Date modified: